Other Public Products
Issued by NWS Charleston, SC

Current Version | Previous Version | Graphics & Text | Print | Product List | Glossary On
Versions: 1 2 3 4 5 6 7 8 9 10 11 12 13 14 15 16 17 18 19 20 21 22 23 24 25 26 27 28 29 30 31 32 33 34 35 36 37 38 39 40 41 42 43 44 45 46 47 48 49 50
000
FPUS82 KCHS 210712
OPUCHS

TEST...KCHS/KSAV Gateway Observations...TEST
National Weather Service Charleston SC
300 AM EDT SAT APR 21 2018

NOTE: "fair" indicates few or no clouds below 12,000 feet with no
significant weather and/or obstructions to visibility.

SCZ050-WAZ558-NCZ071-TXZ119-213-PAZ071-DCZ001-FLZ074-172-MI076-
NYZ176-178-MAZ016-IL014-TNZ027-NJZ106-GAZ044-MD014-210800-

...Gateway Observations for Charleston International...

CITY           SKY/WX    TMP DP  RH WIND       PRES   REMARKS
Chas Airport   FAIR      50  45  83 E6        30.30F
Seattle        CLOUDY    51  35  54 SE8       30.15F
Charlotte      FAIR      46  34  62 N5        30.34S
Dallas DFW     CLOUDY    59  46  62 SE13      30.07R
Dallas Love    CLOUDY    59  46  62 SE10      30.09S
Philladelphia  FAIR      39  24  55 CALM      30.42S
Wash National  FAIR      45  27  49 NE9       30.45R
Baltimore      FAIR      42  25  50 NE5       30.44R
Miami          FAIR      74  67  78 E6        30.07F
Detroit        FAIR      38  28  67 CALM      30.46F
Newark         FAIR      40  25  55 NW6       30.38S WCI  36
Laguardia      FAIR      42  26  53 NW9       30.37S
J F K          FAIR      39  25  57 NW9       30.38S WCI  33
Boston Logan   FAIR      40  27  59 W12       30.25S WCI  33
Ft. Lauderdale FAIR      76  69  79 SE9       30.06F
Chicago O`Hare MOCLDY    42  19  39 CALM      30.43F
Chicago Midway MOCLDY    43  19  38 E5        30.44F
Houston Bush   MOCLDY    60  53  77 SE7       30.07F
Houston Hobby  CLOUDY    65  61  87 E7        30.05F
Nashville      FAIR      48  30  49 NE3       30.32F
Atlanta        FAIR      53  35  50 E3        30.28S

$$

GAZ044-118-TXZ119-213-NCZ071-DCZ001-MDZ014-506-PAZ021-071-NJZ106-
NYZ176-178-MAZ106-OHZ011-021-055-MIZ076-KYZ091-ILZ014-INZ047-
MNZ060-ONZ431-210800-

...Gateway Observations for Savannah International...

CITY           SKY/WX    TMP DP  RH WIND       PRES   REMARKS
Savannah Arpt  FAIR      54  47  77 NE3       30.27F
Atlanta        FAIR      53  35  50 E3        30.28S
Charlotte      FAIR      46  34  62 N5        30.34S
Dallas DFW     CLOUDY    59  46  62 SE13      30.07R
Houston Bush   MOCLDY    60  53  77 SE7       30.07F
Wash National  FAIR      45  27  49 NE9       30.45R
Wash Dulles    FAIR      39  30  70 NE5       30.43R WCI  36
Baltimore      FAIR      42  25  50 NE5       30.44R
Philadelphia   FAIR      39  24  55 CALM      30.42S
Newark         FAIR      40  25  55 NW6       30.38S WCI  36
Laguardia      FAIR      42  26  53 NW9       30.37S
J F K          FAIR      39  25  57 NW9       30.38S WCI  33
Boston         FAIR      40  27  59 W12       30.25S WCI  33
Pittsburg      FAIR      32  23  69 S3        30.42F
Akron          FAIR      32  20  61 CALM      30.43F
Cleveland      FAIR      30  25  81 CALM      30.47S
Cincinnati     FAIR      46  27  47 NE8       30.41R
Columbus       FAIR      40  23  51 N5        30.43F WCI  36
Detroit        FAIR      38  28  67 CALM      30.46F
Chicago O`Hare MOCLDY    42  19  39 CALM      30.43F
Minneapolis    FAIR      39  27  62 CALM      30.41F
Indianapolis   FAIR      44  24  45 E7        30.41F
Toronto Canada PTCLDY    32  23  69 NW6       30.44F WCI  26

$$




USA.gov is the U.S. government's official web portal to all federal, state and local government web resources and services.